GW3762 Weather Reports


Display with metric or nautical units.
time (UTC)temp
F
wind
direction
speed
MPH
gust
MPH
rain 1hr
in
rain 24hr
in
rain mn
in
humidity
%
barometer
mb
20260503001458 50 287 0.0 3.0 0.00 0.05 0.05 61 1010.5
20260503000958 50 57 0.0 3.0 0.00 0.05 0.05 60 1010.5
20260503000458 50 57 0.0 3.0 0.00 0.05 0.05 59 1010.5
20260503000000 51 290 1.0 3.0 0.00 0.05 0.05 59 1010.5
20260502235457 51 250 0.0 3.0 0.00 0.05 0.05 59 1010.4
20260502233958 52 85 0.0 6.0 0.00 0.05 0.05 59 1010.3
20260502233458 52 294 0.0 6.0 0.00 0.05 0.05 57 1010.3
20260502232958 53 58 1.0 4.0 0.00 0.05 0.05 60 1010.2
20260502232458 53 11 1.0 4.0 0.00 0.05 0.05 59 1010.2
20260502231957 53 313 0.0 5.0 0.00 0.05 0.05 59 1010.2
20260502231458 53 100 1.0 8.0 0.00 0.05 0.05 60 1010.3
20260502230959 53 90 1.0 4.0 0.00 0.05 0.05 60 1010.3
20260502230001 53 136 1.0 6.0 0.00 0.05 0.05 61 1010.2
20260502225459 54 67 2.0 6.0 0.00 0.05 0.05 60 1010.2
20260502225000 53 274 1.0 4.0 0.00 0.05 0.05 61 1010.2
20260502224459 54 284 1.0 4.0 0.00 0.05 0.05 62 1010.2
20260502223459 55 274 2.0 7.0 0.00 0.05 0.05 59 1010.1
20260502222958 55 271 3.0 7.0 0.00 0.05 0.05 60 1010.0
20260502222459 56 254 2.0 6.0 0.00 0.05 0.05 57 1010.0
20260502221459 56 234 1.0 4.0 0.00 0.05 0.05 56 1009.9
20260502221000 56 251 1.0 4.0 0.00 0.05 0.05 57 1009.8
20260502215958 55 250 4.0 8.0 0.00 0.05 0.05 57 1009.8
20260502215501 56 248 4.0 8.0 0.00 0.05 0.05 56 1009.8
20260502215000 56 255 1.0 3.0 0.00 0.05 0.05 57 1009.8
20260502214459 56 243 0.0 7.0 0.00 0.05 0.05 59 1009.9
20260502213957 56 246 2.0 7.0 0.00 0.05 0.05 55 1010.0
20260502213500 56 240 3.0 5.0 0.00 0.05 0.05 58 1009.9
20260502212958 56 248 3.0 5.0 0.00 0.05 0.05 57 1009.9
20260502212458 55 228 3.0 3.0 0.00 0.05 0.05 58 1010.0
20260502211958 55 76 0.0 4.0 0.00 0.05 0.05 58 1010.0
20260502210957 55 261 3.0 4.0 0.00 0.05 0.05 60 1010.0
20260502210458 55 281 1.0 2.0 0.00 0.05 0.05 62 1010.0
20260502205958 55 286 0.0 5.0 0.00 0.05 0.05 60 1010.0
20260502205458 55 304 4.0 6.0 0.00 0.05 0.05 59 1010.0
20260502204957 56 254 1.0 4.0 0.00 0.05 0.05 60 1009.9
20260502203959 56 255 3.0 7.0 0.00 0.05 0.05 59 1010.0
20260502203501 57 279 0.0 7.0 0.00 0.05 0.05 60 1010.2
20260502202958 57 227 7.0 7.0 0.00 0.05 0.05 58 1010.2
20260502201958 57 263 1.0 5.0 0.00 0.05 0.05 65 1010.5
20260502200958 56 185 0.0 10.0 0.00 0.05 0.05 63 1010.5
20260502195959 55 238 1.0 5.0 0.00 0.05 0.05 68 1010.5
20260502195458 55 105 0.0 6.0 0.00 0.05 0.05 69 1010.6
20260502194958 55 101 1.0 6.0 0.00 0.05 0.05 71 1010.7
20260502193458 53 271 2.0 3.0 0.00 0.05 0.05 72 1011.0
20260502192958 53 345 0.0 4.0 0.00 0.05 0.05 72 1011.1
20260502192457 53 286 3.0 7.0 0.00 0.05 0.05 75 1011.1
20260502191958 53 49 2.0 7.0 0.00 0.05 0.05 75 1011.1
20260502191459 52 298 1.0 7.0 0.00 0.05 0.05 77 1011.2
20260502190958 52 267 0.0 3.0 0.00 0.05 0.05 78 1011.3
20260502190458 52 266 0.0 4.0 0.00 0.05 0.05 76 1011.4
20260502185958 52 212 1.0 4.0 0.00 0.05 0.05 77 1011.4
20260502185458 52 81 0.0 4.0 0.00 0.05 0.05 75 1011.4
20260502184959 53 285 3.0 4.0 0.00 0.05 0.05 76 1011.5
20260502184458 53 244 0.0 5.0 0.00 0.05 0.05 78 1011.5
20260502183958 53 255 0.0 5.0 0.00 0.05 0.05 76 1011.5
20260502183458 53 273 0.0 8.0 0.00 0.05 0.05 73 1011.6
20260502182458 55 294 0.0 9.0 0.00 0.05 0.05 76 1011.6
20260502181958 54 243 3.0 9.0 0.00 0.05 0.05 76 1011.6
20260502181457 54 257 2.0 7.0 0.00 0.05 0.05 79 1011.5
20260502180957 53 291 1.0 7.0 0.00 0.05 0.05 79 1011.6
20260502180458 53 263 0.0 5.0 0.00 0.05 0.05 84 1011.5
20260502170458 53 241 2.0 6.0 0.00 0.05 0.05 82 1011.6
20260502163957 51 221 0.0 1.0 0.00 0.05 0.05 84 1011.5
20260502163458 51 221 0.0 1.0 0.00 0.05 0.05 84 1011.6
20260502162958 51 238 0.0 1.0 0.00 0.05 0.05 84 1011.5
20260502162458 51 244 0.0 1.0 0.00 0.05 0.05 85 1011.6
20260502161958 51 244 0.0 3.0 0.00 0.05 0.05 85 1011.7
20260502161458 51 244 0.0 4.0 0.00 0.05 0.05 85 1011.7
20260502160957 50 244 2.0 4.0 0.00 0.05 0.05 85 1011.8
20260502151458 52 250 2.0 4.0 0.00 0.05 0.05 84 1011.9
20260502150957 51 234 2.0 6.0 0.00 0.05 0.05 83 1012.1
20260502150458 52 258 4.0 6.0 0.00 0.05 0.05 83 1012.1
20260502123458 49 296 0.0 2.0 0.01 0.05 0.05 91 1012.2
20260502122457 48 298 0.0 2.0 0.01 0.05 0.05 93 1012.1
20260502121456 48 298 2.0 2.0 0.03 0.05 0.05 94 1012.2
20260502120505 47 288 0.0 3.0 0.04 0.05 0.05 93 1012.4
20260502115500 46 290 1.0 3.0 0.05 0.05 0.05 93 1012.0
20260502115002 46 290 2.0 3.0 0.05 0.05 0.05 93 1011.9
20260502113957 45 76 0.0 3.0 0.04 0.04 0.04 93 1011.9
20260502113456 45 76 0.0 3.0 0.04 0.04 0.04 93 1011.9
20260502112957 45 71 2.0 6.0 0.04 0.04 0.04 93 1012.0
20260502112456 45 267 1.0 6.0 0.04 0.04 0.04 93 1012.1
20260502111957 45 84 1.0 2.0 0.03 0.03 0.03 93 1012.6
20260502111456 45 257 0.0 2.0 0.02 0.02 0.02 93 1012.8
20260502110957 46 255 0.0 3.0 0.02 0.02 0.02 93 1012.8
20260502110456 46 255 0.0 3.0 0.01 0.01 0.01 93 1012.7
20260502105957 45 76 0.0 3.0 0.00 0.00 0.00 93 1012.5
20260502105456 46 267 0.0 0.0 0.00 0.00 0.00 93 1012.6
20260502104957 46 267 0.0 0.0 0.00 0.00 0.00 93 1012.6
20260502104456 46 267 0.0 2.0 0.00 0.00 0.00 93 1012.7
20260502103956 46 267 0.0 2.0 0.00 0.00 0.00 93 1012.5
20260502102957 45 267 0.0 2.0 0.00 0.00 0.00 93 1012.2
20260502102457 45 267 0.0 1.0 0.00 0.00 0.00 93 1012.1
20260502101956 45 267 0.0 1.0 0.00 0.00 0.00 93 1012.2
20260502101457 45 267 1.0 1.0 0.00 0.00 0.00 93 1012.2
20260502100956 45 267 0.0 1.0 0.00 0.00 0.00 93 1012.0
20260502100456 45 267 0.0 1.0 0.00 0.00 0.00 93 1011.8
20260502091456 45 267 0.0 1.0 0.00 0.00 0.00 92 1011.7
20260502090956 45 267 0.0 1.0 0.00 0.00 0.00 92 1011.5
20260502090456 45 267 0.0 1.0 0.00 0.00 0.00 91 1011.4
20260502071457 46 194 0.0 3.0 0.00 0.00 0.00 89 1011.9
20260502070957 46 194 2.0 3.0 0.00 0.00 0.00 89 1011.8
20260502070458 46 190 1.0 2.0 0.00 0.00 0.00 89 1011.8
20260502065956 46 190 0.0 1.0 0.00 0.00 0.00 89 1011.8
20260502065457 46 190 0.0 2.0 0.00 0.00 0.00 89 1011.6
20260502064956 46 190 0.0 3.0 0.00 0.00 0.00 88 1011.8
20260502064456 46 190 2.0 3.0 0.00 0.00 0.00 88 1011.9
20260502063956 46 190 1.0 3.0 0.00 0.00 0.00 88 1011.8
20260502062456 46 190 2.0 2.0 0.00 0.00 0.00 88 1011.8
20260502061957 46 171 1.0 2.0 0.00 0.00 0.00 88 1011.8
20260502061456 46 171 0.0 2.0 0.00 0.00 0.00 88 1011.8
20260502060956 46 171 1.0 2.0 0.00 0.00 0.00 88 1011.8
20260502060456 46 171 0.0 1.0 0.00 0.00 0.00 87 1011.8
20260502055957 46 171 1.0 1.0 0.00 0.00 0.00 87 1011.8
20260502055456 47 171 0.0 2.0 0.00 0.00 0.00 87 1011.9
20260502054956 47 171 1.0 2.0 0.00 0.00 0.00 86 1012.0
20260502054456 47 166 0.0 2.0 0.00 0.00 0.00 86 1012.0
20260502053956 47 166 1.0 2.0 0.00 0.00 0.00 86 1012.0
20260502052456 47 166 0.0 2.0 0.00 0.00 0.00 84 1012.1
20260502051956 47 166 0.0 2.0 0.00 0.00 0.00 84 1012.1
20260502051457 47 166 1.0 2.0 0.00 0.00 0.00 84 1012.2
20260502050456 47 166 0.0 1.0 0.00 0.00 0.00 83 1012.4
20260502045959 47 166 0.0 1.0 0.00 0.00 0.00 83 1012.2
20260502045458 47 166 0.0 1.0 0.00 0.00 0.00 83 1012.2
20260502044458 47 166 0.0 1.0 0.00 0.00 0.00 82 1012.3
20260502043958 47 166 0.0 1.0 0.00 0.00 0.00 82 1012.3
20260502043458 47 166 0.0 1.0 0.00 0.00 0.00 82 1012.4
20260502042958 47 166 0.0 1.0 0.00 0.00 0.00 82 1012.3
20260502042459 48 166 0.0 1.0 0.00 0.00 0.00 81 1012.3
20260502041958 48 166 0.0 1.0 0.00 0.00 0.00 81 1012.2
20260502041458 48 166 0.0 1.0 0.00 0.00 0.00 80 1012.3
20260502040959 48 166 0.0 1.0 0.00 0.00 0.00 80 1012.3
20260502035958 48 244 0.0 1.0 0.00 0.00 0.00 79 1012.3
20260502034957 48 244 1.0 1.0 0.00 0.00 0.00 79 1012.2
20260502034458 49 244 0.0 2.0 0.00 0.00 0.00 78 1012.2
20260502033958 49 244 0.0 2.0 0.00 0.00 0.00 78 1012.4
20260502033458 49 244 0.0 2.0 0.00 0.00 0.00 78 1012.5
20260502032459 49 244 1.0 2.0 0.00 0.00 0.00 78 1012.4
20260502031958 49 244 2.0 2.0 0.00 0.00 0.00 78 1012.4
20260502031458 49 244 1.0 2.0 0.00 0.00 0.00 78 1012.5
20260502030958 49 244 0.0 0.0 0.00 0.00 0.00 77 1012.4
20260502030459 49 244 0.0 0.0 0.00 0.00 0.00 78 1012.5
20260502030001 49 244 0.0 0.0 0.00 0.00 0.00 77 1012.5
20260502025500 49 244 0.0 0.0 0.00 0.00 0.00 76 1012.5
20260502024500 50 244 0.0 0.0 0.00 0.00 0.00 75 1012.4
20260502024000 50 244 0.0 2.0 0.00 0.00 0.00 76 1012.4
20260502023459 50 244 1.0 2.0 0.00 0.00 0.00 75 1012.5
20260502022959 50 244 0.0 3.0 0.00 0.00 0.00 74 1012.5
20260502021959 50 235 2.0 3.0 0.00 0.00 0.00 74 1012.6
20260502021459 50 234 0.0 3.0 0.00 0.00 0.00 73 1012.6
20260502021000 50 257 2.0 4.0 0.00 0.00 0.00 74 1012.6
20260502020459 50 258 3.0 5.0 0.00 0.00 0.00 74 1012.6
20260502015958 50 255 2.0 5.0 0.00 0.00 0.00 73 1012.6
20260502015458 50 235 2.0 4.0 0.00 0.00 0.00 74 1012.5
20260502014958 50 254 1.0 4.0 0.00 0.00 0.00 74 1012.5
20260502014459 50 246 2.0 6.0 0.00 0.00 0.00 73 1012.5
20260502013501 50 258 2.0 6.0 0.00 0.00 0.00 73 1012.5
20260502012959 50 252 3.0 6.0 0.00 0.00 0.00 73 1012.5
20260502012458 51 252 3.0 4.0 0.00 0.00 0.00 73 1012.5
20260502011958 51 239 2.0 6.0 0.00 0.00 0.00 73 1012.5
20260502011457 51 235 2.0 7.0 0.00 0.00 0.00 72 1012.4
20260502010958 51 231 3.0 7.0 0.00 0.00 0.00 72 1012.4
20260502010458 51 248 4.0 7.0 0.00 0.00 0.00 72 1012.4
20260502010000 51 247 2.0 7.0 0.00 0.00 0.00 72 1012.4
20260502005459 51 264 4.0 6.0 0.00 0.00 0.00 72 1012.4
20260502004959 51 259 3.0 6.0 0.00 0.00 0.00 71 1012.2
20260502004500 51 247 3.0 6.0 0.00 0.00 0.00 71 1012.1
20260502004000 51 258 3.0 10.0 0.00 0.00 0.00 71 1012.1
20260502003000 51 241 5.0 7.0 0.00 0.00 0.00 70 1011.9
20260502002459 51 243 3.0 7.0 0.00 0.00 0.00 70 1011.9